This is the latest recevied weather packets stored in our database for station/object KB1YYC. If no packets are shown the sender has not sent any weather packets the latest 10 day(s).
| Time | Temp. | Humidity | Pressure | Rain* | Wind** | Luminosity | Snow |
|---|---|---|---|---|---|---|---|
| 1777560409 | 8.33° C | 99% | 1008.1 hPa | 1.78 mm | - | 127 W/m² | - |
| 1777560107 | 7.78° C | 99% | 1008.5 hPa | 0 mm | - | 88 W/m² | - |
| 1777559803 | 8.33° C | 99% | 1008.5 hPa | 0 mm | - | 105 W/m² | - |
| 1777559500 | 8.33° C | 99% | 1008.3 hPa | 0 mm | - | 141 W/m² | - |
| 1777559197 | 7.78° C | 99% | 1008.4 hPa | 0 mm | - | 126 W/m² | - |
| 1777558891 | 7.78° C | 99% | 1008.5 hPa | 0 mm | - | 157 W/m² | - |
| 1777558587 | 7.78° C | 99% | 1008.4 hPa | 0 mm | - | 141 W/m² | - |
| 1777558283 | 7.78° C | 99% | 1008.4 hPa | 0 mm | - | 132 W/m² | - |
| 1777557980 | 7.78° C | 99% | 1008.7 hPa | 0 mm | - | 137 W/m² | - |
| 1777557676 | 7.78° C | 99% | 1008.7 hPa | 0 mm | - | 140 W/m² | - |
| 1777557373 | 7.78° C | 99% | 1008.6 hPa | 0 mm | - | 103 W/m² | - |
| 1777557069 | 7.78° C | 99% | 1008.9 hPa | 0 mm | - | 96 W/m² | - |
| 1777556764 | 7.78° C | 99% | 1008.6 hPa | 0 mm | - | 84 W/m² | - |
| 1777556462 | 7.78° C | 99% | 1008.7 hPa | 0 mm | - | 87 W/m² | - |
| 1777556161 | 7.78° C | 99% | 1009 hPa | 1.27 mm | - | 78 W/m² | - |
| 1777555857 | 7.78° C | 99% | 1008.8 hPa | 1.27 mm | - | 75 W/m² | - |
| 1777555553 | 7.78° C | 99% | 1008.9 hPa | 0 mm | - | 93 W/m² | - |
| 1777555250 | 7.78° C | 99% | 1009.1 hPa | 0 mm | - | 104 W/m² | - |
| 1777554946 | 7.78° C | 99% | 1008.9 hPa | 0 mm | - | 97 W/m² | - |
| 1777554643 | 7.78° C | 99% | 1008.8 hPa | 0 mm | - | 89 W/m² | - |
| 1777554340 | 7.78° C | 99% | 1008.9 hPa | 0 mm | - | 86 W/m² | - |
| 1777554037 | 7.78° C | 99% | 1008.8 hPa | 0 mm | - | 89 W/m² | - |
| 1777553733 | 7.78° C | 99% | 1008.9 hPa | 0 mm | - | 100 W/m² | - |
| 1777553430 | 7.78° C | 99% | 1008.9 hPa | 0 mm | - | 92 W/m² | - |
| 1777553127 | 7.22° C | 99% | 1009.1 hPa | 1.78 mm | - | 78 W/m² | - |
* Rain latest hour (hover to see other rain measurements)
** Current wind speed in m/s (hover to see current wind gust speed)